This is the latest recevied weather packets stored in our database for station/object N7CEE-2. If no packets are shown the sender has not sent any weather packets the latest 10 day(s).
| Time | Temp. | Humidity | Pressure | Rain* | Wind** | Luminosity | Snow |
|---|---|---|---|---|---|---|---|
| 1777746036 | 30° C | 27% | 1016.5 hPa | 0 mm | - | 929 W/m² | - |
| 1777745734 | 30.56° C | 27% | 1016.8 hPa | 0 mm | - | 928 W/m² | - |
| 1777745432 | 29.44° C | 29% | 1016.9 hPa | 0 mm | - | 912 W/m² | - |
| 1777745128 | 30° C | 28% | 1016.8 hPa | 0 mm | - | 905 W/m² | - |
| 1777744820 | 30.56° C | 26% | 1016.9 hPa | 0 mm | - | 898 W/m² | - |
| 1777744514 | 29.44° C | 28% | 1017.1 hPa | 0 mm | - | 888 W/m² | - |
| 1777744210 | 30° C | 27% | 1017.1 hPa | 0 mm | - | 877 W/m² | - |
| 1777743908 | 30° C | 27% | 1017.1 hPa | 0 mm | - | 871 W/m² | - |
| 1777743604 | 29.44° C | 27% | 1017.1 hPa | 0 mm | - | 860 W/m² | - |
| 1777743302 | 29.44° C | 27% | 1017.1 hPa | 0 mm | - | 852 W/m² | - |
| 1777742999 | 29.44° C | 28% | 1017 hPa | 0 mm | - | 839 W/m² | - |
| 1777742696 | 29.44° C | 28% | 1017.2 hPa | 0 mm | - | 822 W/m² | - |
| 1777742392 | 28.89° C | 28% | 1017.1 hPa | 0 mm | - | 808 W/m² | - |
| 1777742088 | 28.89° C | 29% | 1017.1 hPa | 0 mm | - | 797 W/m² | - |
| 1777741786 | 28.33° C | 29% | 1017.1 hPa | 0 mm | - | 789 W/m² | - |
| 1777741482 | 28.89° C | 29% | 1017.2 hPa | 0 mm | - | 772 W/m² | - |
| 1777741178 | 28.33° C | 29% | 1017.1 hPa | 0 mm | - | 752 W/m² | - |
| 1777740876 | 28.33° C | 30% | 1017.2 hPa | 0 mm | - | 736 W/m² | - |
| 1777740573 | 28.89° C | 29% | 1017.3 hPa | 0 mm | - | 722 W/m² | - |
| 1777740269 | 28.89° C | 29% | 1017.4 hPa | 0 mm | - | 704 W/m² | - |
| 1777739965 | 28.33° C | 30% | 1017 hPa | 0 mm | - | 694 W/m² | - |
| 1777739662 | 27.78° C | 30% | 1017.1 hPa | 0 mm | - | 683 W/m² | - |
| 1777739360 | 27.78° C | 31% | 1017.2 hPa | 0 mm | - | 665 W/m² | - |
| 1777739056 | 27.78° C | 31% | 1017 hPa | 0 mm | - | 650 W/m² | - |
| 1777738753 | 28.33° C | 30% | 1017.2 hPa | 0 mm | - | 630 W/m² | - |
* Rain latest hour (hover to see other rain measurements)
** Current wind speed in m/s (hover to see current wind gust speed)